Tracking 19562 objects as of 24-Mar-2019
HD Live streaming from Space Station
objects crossing your sky now

GOES 6

Track GOES 6 now!
GOES 6 is classified as:


NORAD ID: 14050
Int'l Code: 1983-041A
Perigee: 35,767.0 km
Apogee: 35,794.2 km
Inclination: 14.1 °
Period: 1,435.4 minutes
Semi major axis: 42151 km
RCS: 1.9976 m2 (large)
Launch date: April 28, 1983
Source: United States (US)
Launch site: AIR FORCE EASTERN TEST RANGE (AFETR)
aabbcc
Your satellite tracking list
Your tracking list is empty




NASA's NSSDC Master Catalog

Two Line Element Set (TLE):
1 14050U 83041A   19083.28653560 -.00000035  00000-0  00000+0 0  9990
2 14050  14.0585 343.2008 0003217 358.3990 182.0204  1.00318712189564
Source of the keplerian elements: AFSPC